Flag for Liberia Weather past 2 weeks in Monrovia, Liberia

Now
75 °F

Passing clouds.


Feels Like: 74 °F
Forecast: N/A
Wind: No wind

Location: Roberts Field

Current Time: Jun 29, 2015 at 11:38:54 PM

Latest Report: Jun 29, 2015 at 11:00 PM


Visibility: N/A

Pressure: 30.04 "Hg

Humidity: 94%

Dew point: 73 °F

Location of MonroviaLocation

Historic Weather in Monrovia — Graph

°F

Monrovia temperature yesterday

Maximum temperature yesterday: 77 °F (at 8:30 PM)
Minimum temperature yesterday: 77 °F (at 8:30 PM)
Average temperature yesterday: 77 °F

Past Weeks' High & Low Weather Summary

 TemperatureHumidityPressure
High86 °F (Jun 17, 12:30 PM)100% (Jun 15, 2:00 AM)30.12 "Hg (Jun 15, 2:00 AM)
Low73 °F (Jun 15, 2:30 AM)70% (Jun 17, 2:00 PM)29.86 "Hg (Jun 17, 4:00 PM)
Average78 °F90%29.98 "Hg
* Reported Jun 14 10:00 PM — Jun 29 10:30 PM, Monrovia, Weather by CustomWeather, © 2015

Note: Actual official high and low records may vary slightly from our data, if they occured in-between our weather recording intervals... More about our weather records

Advertising

Monrovia weather history for previous 24 hours

 ConditionsComfort  
Time TempWeatherWind HumidityBarometerVisibility
10:30 PM
Mon, Jun 29
75 °FPassing clouds.No wind94%30.01 "HgN/A
9:30 PM75 °FPassing clouds.No wind94%30.01 "HgN/A
9:00 PM75 °FPassing clouds.No wind94%30.01 "HgN/A
8:30 PM75 °FPassing clouds.No wind94%29.98 "HgN/A
8:00 PM75 °FPassing clouds.No wind100%29.98 "HgN/A
7:00 PM75 °FPartly sunny.No wind100%29.95 "HgN/A
6:30 PM77 °FPartly sunny.No wind94%29.95 "HgN/A
6:00 PM77 °FPartly sunny.No wind94%29.95 "HgN/A
5:30 PM77 °FPartly sunny.No wind94%29.95 "HgN/A
5:00 PM77 °FDrizzle. Partly sunny.No wind94%29.95 "HgN/A
4:30 PM77 °FDrizzle. Broken clouds.No wind94%29.95 "Hg6 mi
4:00 PM77 °FLight rain. Partly sunny.5 mph94%29.95 "Hg6 mi
3:30 PM77 °FLight rain. Partly sunny.No wind94%29.98 "Hg6 mi
3:00 PM75 °FLight rain. Partly sunny.No wind94%29.98 "Hg5 mi
2:30 PM73 °FRain. Partly sunny.No wind94%29.98 "Hg3 mi
2:00 PM73 °FRain. Broken clouds.No wind94%30.01 "Hg2 mi
1:30 PM73 °FRain. Mostly cloudy.6 mph94%30.01 "Hg1 mi
1:00 PM75 °FHeavy rain. Mostly cloudy.12 mph94%30.04 "Hg1 mi
12:30 PM75 °FRain. Mostly cloudy.No wind94%30.04 "Hg1 mi
12:00 PM75 °FLight rain. Broken clouds.6 mph94%30.04 "Hg4 mi
11:30 AM79 °FLight rain. Partly sunny.No wind94%30.04 "Hg5 mi
11:00 AM79 °FLight rain. Partly sunny.No wind94%30.04 "Hg6 mi
10:30 AM79 °FLight rain. Partly sunny.No wind94%30.04 "Hg6 mi
10:00 AM79 °FLight rain. Partly sunny.No wind94%30.04 "Hg6 mi
9:30 AM77 °FLight rain. Partly sunny.No wind94%30.04 "Hg6 mi
9:00 AM77 °FLight rain. Broken clouds.No wind94%30.04 "Hg5 mi
8:30 AM77 °FLight rain. Partly sunny.No wind94%30.01 "Hg5 mi
8:00 AM77 °FLight rain. Partly sunny.No wind94%30.01 "Hg5 mi
7:30 AM77 °FPartly sunny.No wind94%30.01 "HgN/A
7:00 AM77 °FRain. Passing clouds.No wind94%30.01 "Hg5 mi
6:30 AM77 °FPassing clouds.No wind94%29.98 "HgN/A
6:00 AM77 °FPassing clouds.No wind94%29.98 "HgN/A
5:30 AM77 °FPassing clouds.No wind94%29.98 "HgN/A
2:30 AM77 °FPassing clouds.No wind94%29.98 "HgN/A
2:00 AM77 °FPassing clouds.No wind94%29.98 "Hg6 mi
12:00 AM77 °FPassing clouds.No wind94%30.01 "HgN/A
11:30 PM
Sun, Jun 28
77 °FPassing clouds.No wind94%30.01 "HgN/A
11:00 PM77 °FPassing clouds.No wind94%30.01 "HgN/A
Weather by CustomWeather, © 2015

See weather overviewHow to use our weather pages